Location: Cheyres
(46.8153°N, 6.7877°E)
Time: 04:17:15
(UTC+00:00)

OBJECT-B - Pass Details

Date: 11 May 2021
Orbit: 414 x 423 km, 97.0° (Epoch: 05 June)

Event Time Altitude Azimuth Distance (km) Brightness Sun altitude
Rises 19:41:50 0° 184° (S) 2,370 4.2 -7.4°
Reaches altitude 10° 19:43:55 10° 193° (SSW) 1,511 3.3 -7.7°
Maximum altitude 19:46:57 37° 262° (W) 679 2.3 -8.1°
Drops below altitude 10° 19:50:01 10° 332° (NNW) 1,526 4.8 -8.5°
Sets 19:52:08 0° 341° (NNW) 2,398 5.7 -8.8°
